Regional Weather Roundup
Issued by NWS

Current Version | Previous Version | Text Only | Print | Product List | Glossary On
Versions: 1 2 3 4 5 6 7 8 9 10 11 12 13 14 15 16 17 18 19 20 21 22 23 24 25 26 27 28 29 30 31 32 33 34 35 36 37 38 39 40 41 42 43 44 45 46 47 48 49 50
000
ASUS44 KFWD 191115
RWRTX
NORTH TEXAS HOURLY WEATHER ROUNDUP
NATIONAL WEATHER SERVICE FORT WORTH TX
500 AM CST FRI JAN 19 2018

NOTE: "FAIR" INDICATES FEW OR NO CLOUDS BELOW 12,000 FEET WITH NO
SIGNIFICANT WEATHER AND/OR OBSTRUCTIONS TO VISIBILITY.

TXZ118-119-191200-
DALLAS/FORT WORTH METROPLEX

CITY           SKY/WX    TMP DP  RH WIND       PRES   REMARKS
DFW AIRPORT    MOCLDY    41  21  44 S12       30.21F WCI  34
DALLAS LOVE    CLOUDY    40  21  46 S12       30.24F WCI  33
FTW MEACHAM    FAIR      35  22  58 SE5       30.21F WCI  31
DAL-EXECUTIVE  CLOUDY    39  21  48 S9        30.23F WCI  33
FTW-ALLIANCE   FAIR      34  21  59 S9        30.20F WCI  27
FTW-NAS-JRB    FAIR      37  20  50 S9        30.22F WCI  30
FTW-SPINKS     CLOUDY    40  21  47 S7        30.24F HAZE    WCI  35
ARLINGTON      CLOUDY    38  21  50 S9        30.23F WCI  31
GRAND PRAIRIE  MOCLDY    39  20  46 S7        30.25F WCI  34
MESQUITE       CLOUDY    37  19  48 S9        30.27S WCI  31
LANCASTER      CLOUDY    37  20  49 S8        30.27F WCI  31
$$

TXZ091>094-102>105-117-120-121-131>134-191200-
NORTH CENTRAL TEXAS

CITY           SKY/WX    TMP DP  RH WIND       PRES   REMARKS
SHRMAN/DENISON FAIR      30  19  64 S8        30.21F WCI  22
GAINESVILLE    FAIR      26  17  68 S5        30.21F WCI  21
BOWIE          FAIR      27  17  68 S7        30.16F WCI  19
BRIDGEPORT     FAIR      22  17  79 CALM      30.20F
DENTON         FAIR      30  21  69 S8        30.21F WCI  22
MCKINNEY       FAIR      34  21  59 S10       30.23F WCI  26
BONHAM         FAIR      32  19  56 S10       30.22F WCI  24
GREENVILLE     CLOUDY    41  21  45 S9        30.25F WCI  35
ROCKWALL       CLOUDY    38  19  48 S12       30.25F WCI  30
TERRELL        CLOUDY    38  18  44 S9        30.27F WCI  31
WAXAHACHIE     CLOUDY    37  23  57 S6        30.26F WCI  32
CLEBURNE       CLOUDY    39  21  48 S7        30.24F WCI  34
GRANBURY       MOCLDY    37  22  55 SE7       30.23F WCI  31
$$

TXZ083>090-098>101-113>116-127>130-139>142-154-155-191200-
WESTERN NORTH TEXAS

CITY           SKY/WX    TMP DP  RH WIND       PRES   REMARKS
WICHITA FALLS  FAIR      29  22  75 S13       30.12F WCI  19
WF-KICKAPOO    FAIR      28  21  78 S8        30.15F WCI  19
VERNON         FAIR      29  15  54 S9        30.09F WCI  21
ABILENE        FAIR      32  22  66 S9        30.13F WCI  24
ABILENE-DYESS  FAIR      35  21  57 S15       30.12F WCI  25
GRAHAM           N/A     33  27  81 S3        30.15F
BRECKENRIDGE   FAIR      35  28  77 S7        30.16S WCI  29
CISCO          FAIR      34  27  75 SW10      30.16F WCI  26
EASTLAND       FAIR      28  26  94 S5        30.17F WCI  23
RANGER         FAIR      36  32  87 SW9       30.16F WCI  29
MINERAL WELLS  FAIR      27  16  63 SE10      30.17F WCI  17
STEPHENVILLE   CLOUDY    35  22  60 CALM      30.22F
COMANCHE       CLOUDY    42  36  78 SW9       30.19F WCI  37
BROWNWOOD      CLOUDY    39  32  75 S3        30.20F
COLEMAN        FAIR      33  26  76 SW9       30.18F WCI  25
$$

TXZ143>147-156>162-174-175-191200-
CENTRAL TEXAS

CITY           SKY/WX    TMP DP  RH WIND       PRES   REMARKS
WACO           CLOUDY    40  22  48 S9        30.27S WCI  34
WACO-MCGREGOR  CLOUDY    39  21  48 S9        30.26F WCI  33
CORSICANA      CLOUDY    38  19  46 S7        30.29F WCI  33
MEXIA          CLOUDY    37  18  46 SE8       30.27F WCI  31
HEARNE         CLOUDY    37  23  57 SE7       30.32F WCI  31
CAMERON        CLOUDY    38  25  58 S5        30.28F WCI  34
TEMPLE         CLOUDY    38  23  55 S10       30.27S WCI  31
KILLEEN        CLOUDY    39  20  47 CALM      30.23S
KILLEEN-SKYLRK CLOUDY    39  21  48 S6        30.25S WCI  35
FORT HOOD      CLOUDY    39  20  46 S6        30.21S WCI  35
GATESVILLE     MOCLDY    39  19  45 SE6       30.25F WCI  35
HAMILTON       CLOUDY    41  28  60 S3        30.22S
LAMPASAS       CLOUDY    40  28  62 CALM      30.22S
$$

TXZ095>097-106>112-122>126-135>138-148>153-164>167-191200-
EAST TEXAS

CITY           SKY/WX    TMP DP  RH WIND       PRES   REMARKS
PARIS          CLOUDY    35  19  52 S8        30.24F WCI  29
SULPHUR SPRNGS CLOUDY    39  17  39 S9        30.28F WCI  33
MOUNT PLEASANT FAIR      38  19  45 S7        30.29F WCI  33
GILMER         CLOUDY    38  19  46 MISG      30.29F
MINEOLA        CLOUDY    39  16  38 S5        30.28S WCI  36
TYLER          CLOUDY    38  16  40 S7        30.28F WCI  33
LONGVIEW       CLOUDY    39  22  50 S7        30.29F WCI  34
MARSHALL       CLOUDY    36  19  49 CALM      30.32F
ATHENS         CLOUDY    34  14  44 S5        30.28F WCI  30
PALESTINE      CLOUDY    38  15  38 SE3       30.31F
JACKSONVILLE   CLOUDY    37  18  45 S5        30.30S WCI  33
CENTER         CLOUDY    37  19  46 CALM      30.33F
NACOGDOCHES    CLOUDY    38  21  50 S3        30.32F
LUFKIN         CLOUDY    37  22  54 S3        30.33S
$$

SUPPLEMENTAL OBSERVATIONS (NWS FORT WORTH AREA)

CITY           SKY/WX    TMP DP  RH WIND       PRES   REMARKS
DENISON DAM      N/A     34  19  55 S5          N/A  WCI  30
CADDO GRASSLND   N/A     34  21  60 S8          N/A  WCI  27
PAT MAYSE LAKE   N/A     36  18  48 SE10        N/A  WCI  28
GREENVILLE       N/A     37  19  48 S8          N/A  WCI  31
CEDAR HILL       N/A     39  21  48 S8          N/A  WCI  34
LBJ GRASSLAND    N/A     32  19  59 SE9         N/A  WCI  24
POSSUM KINGDOM   N/A     36  30  80 S9          N/A  WCI  29
GRANBURY         N/A     36  19  51 SE7         N/A  WCI  30
COMANCHE         N/A     43  34  70 S7G15       N/A  WCI  39
MCGREGOR         N/A     37  21  52 S8          N/A  WCI  31
TEMPLE           N/A     37  25  60 S5          N/A  WCI  34
LAKE LIMESTONE   N/A     37  21  52 S3          N/A
$$

SUPPLEMENTAL OBSERVATIONS (NWS NORMAN AREA)

CITY           SKY/WX    TMP DP  RH WIND       PRES   REMARKS
GOODLETT         N/A     27  16  63 S9        30.05S WCI  18
ODELL            N/A     29  18  61 S12       30.08F WCI  20
CROWELL          N/A     24  15  66 S8        30.09F WCI  16
KNOX CITY        N/A     26  15  64 S12       30.12S WCI  15
SEYMOUR          N/A     28  17  63 S12       30.12S WCI  18
MILLERS CREEK    N/A     30  21  69 S9          N/A  WCI  22
$$

SUPPLEMENTAL OBSERVATIONS (NWS SAN ANGELO AREA)

CITY           SKY/WX    TMP DP  RH WIND       PRES   REMARKS
WEINERT          N/A     30  15  51 S14       30.12F WCI  20
HASKELL          N/A     30  15  54 S12       30.11F WCI  20
THROCKMORTON     N/A     29  21  74 S5        30.14F WCI  23
CLYDE            N/A     34  24  66 S13       30.15F WCI  25
HAMBY            N/A     34  21  60 S13         N/A  WCI  25
$$

SUPPLEMENTAL OBSERVATIONS (NWS SHREVEPORT AREA)

CITY           SKY/WX    TMP DP  RH WIND       PRES   REMARKS
CLARKSVILLE      N/A     34  19  55 S6          N/A  WCI  29
CADDO LAKE       N/A     36  25  64 CALM        N/A
GILMER           N/A     39  19  45 S6          N/A  WCI  35
HENDERSON        N/A     37  18  44 S3          N/A
LUFKIN           N/A     37  21  52 MISG        N/A
N SABINE NF      N/A     37  27  65 MISG        N/A
$$

SUPPLEMENTAL OBSERVATIONS ARE A COLLECTION OF AUTOMATED INSTRUMENTS
THAT ARE MAINTAINED BY A VARIETY OF FEDERAL AND STATE AGENCIES.
CERTAIN ELEMENTS...SUCH AS HUMIDITY VALUES AND SUSTAINED WIND
SPEEDS...MAY BE APPROXIMATED.




USA.gov is the U.S. government's official web portal to all federal, state and local government web resources and services.